Location: Catacaguana
(10.4120°N, 66.7591°W)
Time: 04:24:09
(UTC+00:00)

Meteor 1-5 Rocket - Pass Details

Date: 27 May 2022
Orbit: 788 x 916 km, 81.2° (Epoch: 24 June)

Event Time Altitude Azimuth Distance (km) Brightness Sun altitude
Rises 00:29:26 0° 352° (N) 3,276 7.8 -24.3°
Reaches altitude 10° 00:31:48 10° 352° (N) 2,344 7.0 -24.8°
Maximum altitude 00:37:03 80° 265° (W) 801 4.0 -25.9°
Enters shadow 00:38:02 60° 192° (SSW) 901 4.2 -26.1°
